Theta_e
331 329 330 331 331 332 333 332 332 332 335 337 338 339 338 338 340 340 341 341 339 338 336 334 332 331 332 331 330 330 330 331 330 329 328 326 326 326 326 326 326 326 328 329 328 328 328 328 328 328 328 328 329 328 328 328 329 329 329 330 330 330 330 329 328 328 328 327 327 326 325 324 324 325 326 326 327 328 328 328 329 329 329 330 330
331 330 329 330 331 330 331 331 331 331 333 335 336 338 338 338 340 340 340 340 339 337 334 332 331 330 330 330 329 328 329 328 327 327 326 325 324 325 325 324 324 324 326 327 326 326 326 327 327 327 328 328 328 327 327 327 328 329 329 329 329 329 329 329 328 328 328 328 327 327 328 327 325 325 324 324 325 327 328 328 328 328 327 327 327
333 332 329 329 330 330 331 330 330 330 330 332 333 336 338 339 339 339 339 339 338 336 332 331 330 329 329 329 327 327 327 328 326 325 325 323 323 323 323 324 323 322 324 325 325 324 324 325 325 326 326 326 327 326 326 327 327 328 328 328 329 328 329 329 328 328 327 327 327 328 330 329 327 326 325 324 323 326 327 327 327 327 326 325 326
334 333 329 329 329 329 330 329 329 330 329 330 331 334 336 338 338 338 338 338 338 335 331 330 329 328 329 329 327 327 327 326 325 324 323 322 321 321 321 322 322 322 323 324 323 322 322 323 324 324 324 325 325 326 326 326 327 326 327 327 328 328 328 328 328 328 327 327 327 327 326 325 328 328 326 327 325 324 324 325 326 326 325 325 326
333 333 330 328 328 329 329 330 330 329 330 330 330 332 334 336 337 337 337 336 336 334 331 329 328 327 329 329 328 327 325 324 323 322 321 320 320 320 321 321 321 322 322 323 322 321 321 321 323 323 323 324 324 325 326 326 326 325 325 326 326 327 327 328 328 328 327 326 327 326 325 326 329 327 326 328 328 326 323 323 324 325 326 326 326
333 332 331 329 328 328 329 329 330 330 330 330 330 331 333 334 335 335 334 333 333 332 330 328 327 326 328 328 328 326 323 322 322 321 320 321 321 320 320 320 320 321 321 321 321 321 320 320 321 321 322 323 323 324 324 325 326 325 325 326 326 326 327 327 327 327 327 327 326 327 326 327 328 325 325 328 328 328 327 327 327 326 327 327 326
333 332 331 330 328 328 329 329 330 330 329 330 331 331 332 332 333 333 332 331 331 331 328 327 326 324 325 325 327 325 323 322 321 321 320 320 321 320 320 319 319 320 320 320 320 319 319 319 319 320 321 322 321 322 322 323 324 325 326 326 326 326 326 327 327 326 326 327 327 326 326 326 327 326 327 327 328 328 327 328 329 328 329 328 327
333 333 332 331 327 327 329 329 330 330 330 330 330 330 329 328 327 329 331 330 330 329 327 326 325 324 324 324 324 324 322 321 320 320 320 320 320 319 319 319 319 318 318 318 319 318 317 317 316 317 319 320 320 320 321 321 322 323 325 326 326 326 326 326 326 325 325 326 327 327 326 325 325 326 326 326 329 330 327 326 325 326 327 327 327
332 333 333 330 328 328 329 330 330 330 331 329 328 327 325 325 324 325 329 330 329 328 325 324 324 323 324 323 322 321 320 320 320 320 320 320 320 319 319 318 318 318 318 317 317 317 315 314 313 314 317 318 318 319 319 319 320 322 323 324 324 323 322 323 324 324 324 325 326 325 325 324 323 325 324 323 324 326 328 325 321 321 322 323 327
331 332 332 328 328 329 329 330 329 328 328 326 326 327 326 326 326 325 327 328 327 326 324 323 323 323 323 322 321 320 319 320 320 320 320 320 319 319 318 318 317 317 316 316 316 315 314 313 310 311 314 316 317 317 318 318 319 320 321 322 322 321 318 319 321 322 324 325 325 324 324 324 323 323 322 321 320 319 322 320 315 316 318 319 322
330 332 331 327 328 330 328 327 326 326 326 325 326 327 327 326 327 326 326 325 324 323 322 322 322 322 322 322 321 319 318 319 320 321 320 320 319 318 318 317 316 315 315 315 314 314 313 313 310 310 312 313 314 315 316 316 317 318 319 319 319 318 318 318 318 319 322 323 322 321 320 319 319 318 316 319 320 319 319 317 313 313 314 313 314
331 333 333 330 330 329 326 324 324 325 326 326 328 327 327 327 326 327 326 325 324 323 322 322 321 322 322 322 321 320 318 316 317 320 320 320 320 318 317 316 316 315 315 314 314 314 314 313 311 311 311 311 311 312 313 313 315 317 317 317 317 316 316 316 316 316 317 318 316 315 315 314 314 313 312 314 317 317 317 315 312 312 312 311 310
332 333 334 332 330 326 323 324 324 326 327 327 329 327 326 325 325 327 327 326 326 324 323 323 322 323 323 322 321 320 318 314 313 317 319 320 319 318 317 315 313 314 315 315 314 315 314 313 312 312 313 312 310 309 309 310 313 315 315 315 314 314 314 315 314 314 314 314 314 313 313 313 312 312 311 311 311 312 312 312 311 312 312 311 311
330 331 331 330 327 323 322 325 326 326 327 327 328 326 325 325 326 327 328 327 326 325 324 324 324 324 323 322 321 321 319 314 311 313 316 319 318 316 316 314 310 309 312 314 314 315 314 313 313 314 314 314 313 310 309 309 310 312 314 314 313 313 313 314 313 313 313 312 313 313 313 313 312 311 311 311 310 310 310 311 311 311 311 311 311
327 326 325 323 321 322 323 325 327 326 326 326 326 327 326 325 326 327 328 327 327 326 326 326 326 325 323 322 321 321 320 315 312 312 314 316 316 315 316 316 311 309 310 312 313 313 314 313 313 315 315 314 314 314 311 308 306 307 310 311 313 313 312 312 311 310 310 310 311 311 311 312 312 311 311 311 310 310 309 309 310 312 313 310 309
324 324 326 322 318 321 323 324 326 326 326 326 325 325 325 324 323 327 327 327 327 327 327 327 326 325 323 322 321 321 319 316 313 312 313 314 313 314 316 316 314 311 311 311 311 312 312 312 312 313 314 314 315 315 313 310 306 305 305 306 310 312 312 312 311 309 308 308 307 307 308 310 311 311 311 310 309 309 308 308 308 311 313 312 312
323 325 331 328 320 319 322 324 327 327 327 327 325 323 325 324 324 327 327 327 327 327 327 326 325 324 323 321 321 321 318 316 314 312 313 313 312 314 316 317 314 313 313 313 311 311 310 310 311 312 312 313 315 316 315 313 310 307 306 305 306 308 309 309 310 310 309 307 306 306 308 310 310 310 310 309 308 308 309 309 308 308 310 314 316
326 327 329 328 321 319 321 323 327 328 326 326 325 323 325 326 325 326 326 327 327 327 328 325 323 323 322 321 321 321 318 316 314 313 314 314 313 313 315 315 314 313 314 313 310 310 310 310 311 313 312 311 312 315 315 314 312 311 309 308 307 307 306 306 308 309 309 309 307 307 308 309 309 309 309 309 309 309 309 309 309 308 307 310 313
327 328 329 329 322 320 322 322 324 326 324 324 325 324 325 326 325 325 325 325 326 327 327 324 322 322 322 322 321 320 318 316 316 315 316 315 313 313 313 314 314 313 313 312 310 310 310 311 312 314 315 311 311 313 315 315 314 313 312 311 310 310 308 307 308 309 309 310 308 308 308 308 309 309 309 309 309 309 310 309 309 308 306 306 307
324 323 326 327 321 320 324 323 324 326 323 323 324 325 326 326 323 323 323 325 326 327 325 324 323 322 321 321 321 319 317 317 318 318 318 317 314 314 314 314 315 315 314 313 312 311 311 312 313 315 316 314 312 312 314 314 314 314 314 313 312 311 310 310 310 309 309 310 309 307 308 308 308 308 308 308 308 308 309 309 307 307 306 306 305
322 322 323 322 318 319 323 323 325 326 322 320 322 323 325 325 323 322 323 324 325 326 325 323 323 322 321 321 320 319 318 318 319 319 320 318 316 316 317 316 316 316 317 315 314 314 313 314 315 315 316 316 315 313 313 314 314 314 314 314 314 313 312 311 311 310 309 310 310 308 308 308 308 308 308 308 307 308 308 307 307 306 306 305 304
320 321 321 318 317 319 321 322 324 324 322 321 321 322 322 322 322 322 322 324 324 324 324 323 322 322 321 320 320 319 319 320 320 320 320 319 317 318 319 318 316 317 317 317 316 315 315 315 315 316 316 317 316 315 314 314 315 314 314 314 314 314 314 313 312 312 311 310 310 309 309 309 308 307 307 307 307 307 308 307 307 307 305 303 302
320 321 319 316 316 319 320 322 322 322 322 322 322 321 321 322 322 322 323 323 323 323 323 323 322 322 321 321 320 320 320 320 320 320 320 319 318 319 319 318 318 317 318 318 317 316 316 316 316 316 317 317 316 316 316 315 315 315 314 313 314 314 314 314 313 314 313 312 311 310 310 311 310 308 307 306 307 307 307 307 307 307 305 303 301
320 321 318 314 316 317 318 320 320 322 322 322 322 321 321 322 322 322 323 323 323 322 322 322 322 322 322 321 321 321 321 321 321 320 319 319 318 318 319 319 319 319 319 319 318 317 317 317 317 317 317 317 317 317 317 317 316 316 315 314 314 314 314 314 314 314 314 314 313 312 311 311 311 310 309 307 307 307 307 307 307 307 305 303 302
320 321 320 318 317 316 315 317 319 321 322 322 323 322 322 322 322 322 323 323 322 321 321 322 322 323 323 322 321 322 322 321 321 320 319 319 319 319 319 319 319 320 319 319 319 319 318 318 318 318 317 317 317 317 317 317 317 317 316 316 315 315 314 314 314 314 314 314 314 313 312 312 312 311 310 309 307 307 307 307 307 306 305 303 304
321 321 321 320 318 314 313 315 318 320 321 322 322 323 322 322 321 321 322 322 322 321 321 322 322 323 323 322 322 321 321 321 320 319 319 319 319 319 320 320 319 319 319 319 319 319 319 318 318 318 318 318 318 318 318 317 317 317 317 317 316 316 316 316 316 315 314 314 314 314 314 313 313 311 310 309 309 307 307 306 306 305 304 304 304
320 320 320 320 319 314 311 312 314 317 320 322 322 322 322 321 321 321 321 322 322 322 321 321 322 323 322 322 322 321 320 320 319 319 320 320 320 320 319 319 319 319 319 319 318 319 319 318 318 318 319 319 319 318 318 317 317 317 316 316 317 317 317 317 318 317 316 315 315 314 314 314 313 313 312 311 310 309 308 307 306 306 305 305 306
318 319 319 319 319 315 310 309 311 315 318 319 320 322 322 322 321 321 321 321 322 322 321 321 322 322 322 322 322 321 321 320 319 319 319 320 319 319 319 319 319 318 318 319 318 318 318 318 318 319 319 319 318 318 318 318 318 317 317 317 317 317 318 318 318 318 318 317 316 316 315 315 314 314 313 312 311 310 309 308 307 306 305 304 305
316 316 316 316 316 313 308 307 308 311 315 316 318 320 321 322 322 321 321 321 321 322 321 321 321 321 322 322 321 321 320 320 319 318 319 319 319 319 319 318 317 317 318 318 318 318 318 318 318 319 318 318 318 318 319 320 319 319 318 318 318 318 318 319 319 318 318 318 317 317 317 317 316 315 314 313 313 312 311 310 309 307 305 304 304
315 315 314 313 311 307 305 306 305 306 308 310 313 317 319 322 322 322 322 321 321 322 321 321 321 321 321 321 321 321 320 319 319 318 319 319 319 319 319 318 317 318 318 319 319 319 319 319 318 318 319 319 319 320 320 320 320 320 319 319 319 319 319 318 318 318 319 319 318 319 318 318 318 317 315 314 313 312 312 311 310 308 305 304 304
314 313 312 313 309 303 303 305 305 304 305 305 307 310 315 319 320 321 322 321 321 320 319 318 318 319 319 319 318 319 318 316 316 316 316 317 317 318 319 318 319 319 319 320 319 320 320 320 320 319 320 319 319 319 319 319 319 319 319 319 319 319 319 319 319 319 319 319 319 319 319 318 318 317 316 314 313 312 311 311 310 307 305 305 304
311 310 309 310 308 302 301 303 304 304 304 304 304 305 308 310 313 315 316 316 314 313 311 310 311 313 315 315 315 315 314 313 312 312 313 313 314 315 316 316 316 316 316 317 317 317 318 318 317 317 316 315 315 315 314 316 317 318 319 319 319 319 320 319 319 319 319 319 319 319 318 318 318 318 316 315 314 312 310 309 308 306 305 305 304
307 308 307 307 305 302 301 303 304 304 304 304 304 304 305 306 307 308 308 308 308 307 307 307 307 308 309 309 310 310 310 310 310 310 310 310 310 311 310 310 310 311 311 312 312 312 312 312 311 311 311 311 311 311 311 311 312 314 316 317 318 319 319 319 319 319 319 319 319 318 318 318 317 316 315 314 314 312 309 307 306 305 304 304 303
307 307 306 303 303 303 304 305 305 304 304 304 304 304 305 305 306 306 306 307 307 306 307 307 306 306 307 307 308 308 308 308 308 308 308 308 308 308 308 308 309 309 310 310 310 310 309 309 309 309 309 310 309 309 309 309 309 310 311 313 316 318 319 319 319 319 319 319 318 318 317 316 316 315 314 313 312 310 308 306 304 304 304 304 303
308 308 306 303 303 304 305 305 305 305 304 305 304 304 304 305 305 306 306 306 306 306 306 307 306 306 307 306 307 308 308 308 307 307 307 307 307 308 307 307 308 308 309 309 309 309 308 308 308 308 308 308 308 308 308 308 308 308 309 310 311 315 317 318 318 319 319 319 318 316 316 315 315 314 313 312 310 308 307 305 304 304 303 303 302
302 303 304 304 305 306 305 305 306 306 305 305 305 304 305 305 305 305 305 305 305 306 306 306 306 306 306 306 307 307 308 308 308 308 308 307 308 307 307 307 308 308 308 308 308 308 308 308 307 307 307 307 308 308 308 309 309 308 309 309 310 312 315 317 318 318 318 318 316 315 314 314 313 312 311 309 307 306 306 305 304 304 303 302 302
296 297 300 302 305 306 305 304 305 305 305 305 305 305 305 305 305 305 305 305 305 305 306 306 306 306 306 306 306 306 307 307 307 307 307 307 307 307 307 308 308 308 308 308 308 308 307 307 307 307 307 307 307 308 309 309 308 309 309 309 311 313 316 316 317 316 316 315 314 313 312 311 310 308 307 306 305 305 305 304 303 303 302 302 302
296 297 298 299 301 302 300 300 301 302 303 304 305 305 305 305 304 304 304 305 305 305 305 305 305 305 305 306 306 306 306 306 306 306 306 306 306 306 306 307 307 308 308 308 308 308 308 308 307 307 308 307 307 308 309 308 308 308 309 309 311 313 315 315 314 313 312 311 311 310 309 308 307 305 304 303 303 303 304 303 303 303 302 301 300
297 297 298 298 298 298 298 298 299 299 300 301 302 303 304 304 304 304 304 305 305 305 305 305 305 306 306 306 306 306 305 305 305 305 305 305 305 305 305 305 305 306 306 306 307 307 308 308 308 308 308 308 308 308 308 308 308 308 308 308 310 312 313 312 311 309 308 308 308 307 305 305 305 303 303 302 302 302 303 302 302 302 301 299 298
297 297 298 298 299 298 298 298 299 299 299 299 300 301 302 303 303 303 304 304 304 305 305 305 305 305 305 306 306 306 306 306 306 305 305 305 305 305 305 305 304 305 304 305 305 306 306 307 307 308 308 309 309 308 308 308 308 307 307 308 309 311 311 310 308 307 307 306 305 304 303 302 303 302 302 302 302 301 301 300 300 299 298 297 296
298 298 298 298 298 298 298 298 298 298 299 299 300 300 300 301 302 302 303 302 302 303 304 305 305 305 305 305 305 305 305 305 305 305 305 305 304 304 304 304 305 304 304 305 305 305 306 306 307 308 309 308 309 308 308 308 308 308 307 307 308 309 309 308 307 305 305 304 303 302 301 300 300 300 300 300 299 299 298 297 297 296 295 295 294
297 298 298 298 298 298 298 299 298 298 299 299 299 299 300 300 300 300 300 300 300 301 302 303 304 305 304 305 305 304 304 304 305 304 304 304 304 304 304 304 304 304 304 305 305 305 306 306 307 308 308 308 308 308 308 308 308 308 307 307 307 308 308 307 306 304 303 302 301 301 300 299 299 299 299 298 298 297 296 296 295 294 294 293 293
297 297 297 297 298 298 298 298 298 298 298 298 298 299 299 300 300 300 300 300 300 300 300 301 302 304 305 304 304 304 304 304 304 304 303 304 304 303 304 303 303 304 304 304 305 305 305 305 305 306 307 307 307 307 307 307 307 307 307 307 306 307 306 306 305 303 301 300 299 299 298 298 298 297 297 296 296 295 295 294 293 293 293 292 292
296 297 297 297 297 297 297 298 298 298 298 298 298 298 298 299 300 300 300 300 300 300 300 300 301 302 304 304 304 303 303 303 304 303 303 304 304 304 304 304 303 304 304 304 305 304 304 304 304 305 305 305 306 305 305 306 306 306 305 305 305 305 304 303 302 301 299 298 298 297 297 296 296 295 295 294 294 293 293 292 292 292 291 291 291
295 296 296 296 296 297 297 297 298 298 298 298 298 298 298 298 299 299 299 300 300 301 301 301 301 301 303 304 303 303 303 303 303 304 303 304 303 304 304 303 304 304 304 304 304 303 303 303 303 303 304 304 304 304 303 304 304 304 303 302 303 302 301 299 299 298 298 297 297 296 295 295 294 294 293 293 292 292 291 291 291 290 290 290 290
295 295 295 295 295 296 296 296 297 297 298 298 298 298 298 298 298 298 298 299 299 300 301 301 302 302 302 303 303 303 303 303 304 304 303 303 304 303 303 303 303 303 303 303 303 303 303 303 303 302 303 303 303 302 302 302 301 301 300 300 299 299 298 298 298 297 296 296 295 294 294 293 293 292 292 292 291 291 291 290 290 290 289 289 288
294 294 294 294 294 294 294 295 295 296 297 297 298 298 298 298 298 297 298 298 298 299 300 301 301 302 302 302 303 303 303 303 303 304 303 304 303 303 303 303 303 303 303 302 302 303 302 302 302 302 302 302 302 301 300 300 299 299 299 298 298 298 297 297 297 296 295 294 294 293 293 292 292 292 291 291 290 290 290 289 289 288 288 288 288
293 293 293 293 293 293 293 293 294 295 296 296 297 298 298 298 298 297 297 297 297 298 299 300 301 301 301 302 302 303 303 303 303 303 303 303 303 303 303 303 302 302 302 302 302 302 302 302 302 302 303 302 301 300 300 300 299 299 298 298 297 297 297 296 296 295 294 293 292 292 292 291 291 291 290 290 289 289 288 288 288 288 287 287 287
291 291 292 292 292 292 292 292 293 293 294 294 295 296 297 298 298 298 298 298 298 298 299 299 300 300 301 302 302 303 303 303 303 303 302 302 302 302 302 302 302 302 302 302 302 302 302 303 303 303 303 302 300 300 301 300 299 298 298 298 297 297 296 295 294 293 293 292 292 291 291 291 290 290 289 289 288 288 288 287 287 287 287 287 287
290 290 290 290 290 291 291 291 291 291 292 292 293 294 296 297 297 298 298 299 299 299 299 299 300 300 301 302 302 302 302 302 302 302 302 302 302 302 302 302 302 302 302 302 302 302 302 302 303 303 303 302 302 302 301 299 297 297 297 297 296 296 295 294 293 292 292 292 291 291 290 290 290 289 288 288 288 287 287 287 287 287 288 288 287
289 289 289 289 289 290 290 290 290 290 290 291 291 293 294 296 296 297 298 299 299 299 299 300 300 300 301 302 302 302 302 302 302 301 301 301 301 301 301 301 301 301 301 301 301 302 302 302 303 303 303 303 302 302 301 298 296 295 295 295 295 294 293 292 292 292 292 291 291 290 290 289 289 288 288 287 287 287 287 287 287 288 288 287 287
Wind_Speed
5 9 13 14 16 18 19 20 19 19 22 24 21 17 14 14 16 17 18 18 17 17 17 17 16 14 12 10 10 10 9 9 8 6 5 4 4 4 5 5 5 5 6 6 6 5 4 4 4 4 4 4 4 2 1 2 3 3 3 3 4 6 8 8 7 8 7 5 4 4 4 4 5 4 4 4 4 4 4 5 6 6 6 6 8
5 7 10 13 14 16 18 17 19 23 25 26 25 21 18 17 18 19 20 20 18 18 18 18 16 14 13 12 12 12 10 9 8 6 4 3 3 4 4 4 4 4 6 6 6 5 5 3 2 2 2 2 2 2 2 2 1 2 2 3 4 6 8 8 6 7 6 5 3 1 2 3 5 6 6 7 6 6 5 5 5 6 4 3 5
5 6 8 13 14 15 17 16 16 21 23 22 23 23 23 22 22 22 23 21 19 18 18 17 15 13 12 12 13 12 11 10 9 7 5 4 4 4 4 3 2 2 4 7 7 6 5 4 3 2 1 1 1 0 2 3 3 2 1 3 4 5 6 5 3 5 4 5 4 1 0 1 2 4 5 8 9 10 9 7 7 7 8 8 7
7 6 8 12 14 16 17 16 15 17 19 19 21 24 26 27 26 25 25 22 20 19 18 16 15 13 11 13 14 12 12 12 10 9 6 5 4 4 5 4 3 2 5 7 8 6 5 4 4 3 2 2 3 4 3 2 3 4 3 3 3 4 4 2 2 3 3 6 4 1 1 1 1 2 2 4 7 9 11 10 9 9 11 11 10
8 8 8 9 13 16 17 17 16 17 20 21 23 26 28 29 29 27 26 22 20 21 19 16 16 14 14 16 15 13 13 13 12 10 7 6 5 5 6 5 5 5 6 7 7 6 5 4 3 2 1 2 3 4 5 4 3 1 2 3 2 2 3 3 4 4 3 4 3 2 2 1 2 1 1 1 2 5 9 9 9 9 10 10 11
7 7 6 7 9 13 16 17 18 20 22 23 25 27 29 30 29 27 25 22 21 21 19 17 16 17 18 19 17 15 15 13 11 10 8 7 7 7 7 7 6 7 6 6 6 5 4 3 2 1 0 2 3 4 4 5 5 4 3 3 2 2 3 3 4 4 3 1 3 4 2 2 3 2 1 1 1 2 5 7 7 6 6 6 6
6 6 6 7 9 12 14 18 20 22 23 24 25 25 26 27 28 27 25 23 23 21 18 17 18 18 18 18 17 16 16 13 11 9 8 8 8 9 8 8 7 7 7 6 5 5 5 4 3 2 2 3 4 3 3 4 5 5 5 4 3 3 3 4 4 4 3 1 2 3 1 2 4 4 3 1 1 1 1 3 5 4 3 2 2
6 6 6 7 10 13 16 19 22 20 18 17 16 13 11 13 19 24 25 24 22 21 19 19 18 18 17 16 16 16 15 13 11 9 9 9 10 10 9 8 8 7 7 6 6 6 5 5 4 3 3 4 4 3 3 3 4 4 5 5 5 4 3 3 4 5 5 4 2 1 2 1 0 2 3 4 3 1 1 1 0 1 2 0 1
7 7 7 8 11 16 18 17 14 9 6 7 11 12 10 10 12 18 23 25 23 22 21 19 18 17 17 17 17 16 14 14 13 11 11 10 10 10 8 7 7 6 6 7 8 7 6 5 3 3 4 4 3 3 3 3 3 3 4 5 5 6 5 4 3 4 5 5 4 2 2 1 1 0 3 5 5 3 0 1 4 6 5 5 2
6 7 7 9 13 15 11 4 6 11 16 19 16 10 11 14 17 18 20 23 23 22 22 20 18 17 18 19 19 18 16 16 15 14 13 11 10 9 8 6 5 6 7 8 8 7 6 5 3 3 4 4 4 3 4 4 4 4 5 4 4 6 7 7 7 6 5 5 4 3 2 2 2 1 4 7 8 8 4 2 6 7 7 11 11
6 6 6 9 12 8 9 20 27 28 25 22 16 11 13 17 20 18 17 19 20 21 21 21 20 18 18 19 18 18 18 18 18 16 14 12 10 9 7 6 6 6 8 9 8 7 5 5 5 6 6 5 4 5 4 5 5 6 6 6 5 6 6 7 7 8 8 7 6 5 5 5 6 6 7 6 5 5 5 4 7 9 10 14 18
6 5 5 7 6 10 23 31 31 27 21 20 18 16 16 20 21 20 19 18 17 18 19 19 19 18 17 17 16 15 15 16 17 17 15 12 11 10 8 8 7 7 8 7 7 6 4 4 6 8 9 7 7 6 5 6 6 7 7 7 6 6 6 6 7 9 9 9 9 9 9 9 10 10 9 8 6 8 9 6 5 7 9 11 16
6 5 5 5 5 13 23 25 21 18 20 23 22 23 28 29 27 26 24 21 20 19 19 18 18 17 17 17 16 15 14 13 14 15 14 12 11 11 10 8 8 8 7 6 5 4 3 3 5 7 8 8 8 7 7 7 7 8 8 7 7 7 7 7 9 10 9 9 9 9 9 10 12 11 10 10 8 8 11 8 5 6 6 8 10
2 2 3 3 7 14 20 19 16 15 17 21 24 30 33 28 25 25 24 22 22 21 20 18 17 17 18 19 18 16 14 13 13 14 13 12 11 11 9 8 7 6 6 6 5 4 2 2 3 4 5 6 7 7 8 7 7 8 8 9 10 10 9 9 9 9 9 9 9 9 10 11 12 12 11 12 12 10 9 7 6 7 7 7 7
6 7 8 9 8 15 20 17 16 16 17 21 26 27 24 19 19 22 22 21 20 20 20 19 18 19 20 21 21 18 16 14 13 13 12 12 11 10 9 7 6 5 5 5 4 3 2 1 1 2 2 3 4 5 6 6 6 7 8 9 10 10 9 10 9 9 9 9 8 8 10 11 12 11 12 13 14 14 12 9 7 6 5 5 5
7 8 10 10 9 8 14 15 15 15 17 22 25 20 17 18 23 22 18 18 19 20 21 20 20 21 21 22 22 20 17 15 14 13 12 12 11 10 9 7 6 5 4 4 3 3 2 0 1 1 0 0 1 2 4 5 5 6 7 8 9 9 9 10 10 10 10 10 9 9 10 12 12 10 11 12 12 13 13 11 8 6 5 3 2
5 5 7 9 11 6 8 13 16 16 18 21 22 20 20 23 25 21 16 18 23 25 23 21 21 21 22 23 22 21 19 16 15 14 13 12 11 9 8 7 6 5 4 3 3 4 2 1 1 2 2 2 2 2 2 3 4 4 5 6 7 8 8 9 9 10 11 11 11 12 12 12 11 10 11 12 12 13 13 13 12 8 7 5 2
3 3 2 6 12 11 7 12 17 18 18 19 21 24 25 23 23 23 21 24 28 27 24 22 21 21 22 23 23 21 19 17 16 14 13 13 11 9 8 7 6 5 5 4 4 4 4 3 2 2 4 4 4 3 1 2 3 3 4 5 5 6 7 9 8 8 10 11 11 12 12 12 12 11 11 12 11 12 12 13 14 13 10 8 6
2 3 1 2 8 14 11 13 16 14 13 15 21 26 25 22 23 24 24 26 28 26 23 21 21 21 22 23 23 21 19 18 17 16 14 14 13 10 8 7 5 5 6 5 5 5 5 5 4 4 4 5 5 4 3 2 2 2 2 3 3 3 4 6 7 7 8 8 10 11 10 10 10 9 9 10 9 9 10 11 12 14 15 13 11
4 4 3 3 5 13 15 15 14 11 10 12 18 24 25 25 26 24 22 25 26 24 22 19 20 22 23 23 23 22 21 20 19 17 15 14 13 12 10 8 6 5 6 7 6 6 6 6 6 5 5 6 6 6 5 4 4 3 3 2 1 2 2 3 4 5 5 6 8 9 9 9 8 7 7 7 8 8 8 9 11 12 14 14 13
4 4 4 4 6 10 13 14 12 10 9 10 13 17 21 24 24 21 20 22 23 23 21 19 19 21 22 22 23 23 23 22 20 18 16 15 14 14 13 10 7 8 9 9 9 9 8 9 8 7 7 6 7 7 7 7 7 6 5 4 3 2 1 1 1 2 3 4 5 7 8 7 6 5 5 5 6 7 7 8 9 10 13 13 12
3 4 4 4 6 9 10 10 10 9 8 8 7 10 14 17 17 17 18 20 20 20 20 19 17 17 19 21 21 23 23 21 20 18 17 16 15 15 15 12 10 11 13 11 11 10 11 12 12 11 10 9 8 7 8 9 10 10 9 8 7 6 4 3 2 1 1 2 2 3 5 6 6 5 4 4 4 5 5 6 7 8 11 12 12
4 5 4 4 6 9 9 8 7 6 5 6 6 7 10 11 12 14 15 17 17 17 19 19 16 15 16 17 18 20 21 20 19 18 17 17 16 16 14 12 11 13 15 15 13 13 14 14 14 14 14 12 10 8 8 10 12 14 14 12 10 10 8 7 6 5 3 3 3 3 3 3 4 3 4 4 4 4 3 4 5 6 8 9 10
5 5 4 5 7 8 9 8 6 6 5 5 5 6 8 8 9 11 13 14 14 14 15 16 16 15 15 15 15 16 17 17 17 17 17 16 16 15 14 12 12 13 14 14 14 14 15 17 18 18 17 15 13 11 10 11 13 15 16 16 15 13 12 10 9 9 8 7 6 5 5 4 4 4 4 4 4 4 3 3 4 4 4 6 7
5 5 5 5 6 7 8 8 8 8 6 5 4 4 6 7 8 9 10 11 12 12 13 13 14 13 13 14 14 15 14 14 15 16 16 16 15 14 15 14 12 11 10 11 12 12 14 18 20 20 20 20 18 16 14 13 14 15 16 18 19 18 15 13 12 11 11 10 10 9 8 8 7 7 6 5 5 5 4 3 3 2 2 3 4
6 5 5 4 5 6 8 9 9 10 8 6 5 4 5 7 8 8 8 8 10 12 12 11 11 11 11 12 13 14 14 14 15 15 16 16 14 11 12 12 10 9 9 9 11 12 15 20 21 20 20 21 21 20 18 17 17 16 15 16 20 21 19 17 15 14 13 13 13 12 11 11 11 10 9 8 7 6 6 6 5 4 3 2 2
4 4 5 4 4 5 7 9 10 11 10 8 7 6 6 8 9 9 9 8 9 12 13 11 10 10 10 11 12 12 12 13 15 15 14 14 12 9 8 9 9 9 9 11 14 14 14 17 21 21 19 18 18 18 18 19 19 19 17 17 20 23 22 20 18 17 15 15 14 14 14 14 14 14 13 12 11 10 9 9 7 6 6 5 3
3 4 4 4 4 4 5 8 10 12 13 11 9 8 8 8 9 10 11 9 8 12 14 13 11 11 11 11 11 10 10 11 12 11 9 10 11 10 10 10 9 8 10 12 14 13 12 14 18 18 17 16 15 16 16 17 17 18 19 20 22 23 22 20 20 19 18 16 16 16 16 16 16 16 16 16 14 13 12 11 10 8 8 7 4
5 5 4 4 3 2 3 6 8 10 12 13 12 10 9 9 9 10 10 9 9 12 14 13 12 11 10 10 10 10 9 8 8 8 8 10 10 10 11 10 9 9 11 11 11 12 13 14 16 16 15 14 14 14 14 14 15 16 17 19 20 20 20 19 19 19 18 18 17 18 19 19 18 18 18 19 18 16 15 13 12 11 10 8 4
6 6 6 5 5 6 5 4 5 7 8 10 11 12 11 10 9 9 9 8 9 11 12 12 11 10 10 10 10 10 8 6 7 7 7 7 7 8 8 7 7 7 9 9 9 9 10 11 12 12 11 10 10 11 11 12 13 14 16 17 17 17 16 17 17 18 18 18 18 18 18 19 19 19 19 21 21 20 18 16 13 11 9 7 4
6 5 5 5 6 7 7 7 7 6 6 6 7 10 12 12 11 10 9 8 8 9 9 9 9 9 9 9 9 9 8 8 8 8 8 7 6 6 5 4 4 5 5 5 5 5 5 6 7 7 6 6 6 6 7 8 9 10 11 12 13 13 14 14 15 16 16 16 15 15 15 16 17 19 20 21 22 23 20 17 13 10 8 6 4
6 6 7 7 6 7 9 10 10 8 7 7 6 7 11 13 13 13 12 11 11 11 11 11 11 11 11 10 10 9 10 10 11 11 11 10 10 9 9 8 7 6 5 4 3 2 2 1 1 1 2 3 4 5 5 6 7 7 8 9 10 11 11 12 13 13 13 13 12 13 13 14 15 17 18 19 21 23 20 16 13 11 9 8 5
7 7 7 7 8 10 12 14 14 14 12 10 7 6 9 11 12 12 12 12 12 13 13 13 13 13 12 11 11 11 11 13 14 14 14 13 13 12 12 11 11 10 9 8 7 6 5 4 4 4 5 5 6 6 7 7 7 7 7 8 9 10 11 11 11 11 11 11 12 13 14 14 14 15 16 17 19 20 18 16 14 13 11 8 6
7 7 7 8 11 14 16 18 19 19 18 16 13 10 8 8 9 9 9 9 9 10 11 11 11 12 12 11 11 12 13 14 15 15 15 14 13 13 12 11 10 9 9 8 8 6 5 5 4 5 5 6 7 8 9 9 9 10 9 9 9 9 10 10 11 11 10 11 12 13 13 13 12 13 14 14 15 17 18 17 14 12 9 7 6
6 6 7 10 13 15 17 18 18 19 18 18 18 16 14 12 11 10 9 9 8 8 8 9 9 9 10 10 10 11 12 13 13 13 13 12 12 10 9 8 7 7 7 6 5 4 4 3 4 4 6 7 8 9 10 10 11 11 11 11 10 9 9 10 11 11 11 11 11 12 12 12 11 11 12 12 12 16 18 16 13 10 8 6 5
7 7 7 9 11 13 14 14 13 14 15 14 14 13 13 14 14 14 14 12 12 12 11 10 10 10 10 10 11 11 12 11 11 11 11 11 10 9 8 7 6 6 5 4 4 3 2 2 3 5 6 7 8 8 8 9 9 10 10 11 11 10 10 10 10 11 11 11 11 11 10 10 9 9 9 8 12 16 17 14 12 9 7 5 5
12 13 13 12 10 11 12 12 11 9 7 7 7 6 7 10 11 11 12 12 13 13 11 10 10 10 10 11 11 12 12 12 11 11 11 11 10 10 9 8 7 6 5 3 2 1 1 2 3 4 6 8 8 8 8 8 9 10 10 10 10 10 10 9 8 9 9 9 9 8 7 6 6 6 6 9 12 14 13 11 9 7 5 5 5
16 18 19 18 15 13 13 14 13 11 7 7 8 4 2 5 7 6 4 5 6 5 3 2 4 4 4 4 6 7 9 10 10 11 10 10 10 9 9 8 6 5 4 2 1 0 1 2 3 4 6 8 8 8 9 10 11 11 10 10 10 10 9 8 6 6 5 5 4 3 2 2 3 5 7 9 10 9 9 8 6 4 3 4 5
15 16 17 18 16 15 15 17 17 16 14 11 8 7 6 6 5 3 1 2 2 3 4 4 4 5 5 4 3 3 4 5 6 7 7 7 7 7 7 6 5 4 3 2 1 1 2 3 4 5 6 7 7 8 8 9 10 10 9 9 9 8 7 6 4 2 1 1 2 3 3 3 5 6 7 7 6 5 5 4 3 4 4 4 5
15 15 14 15 16 15 16 17 16 16 16 13 11 9 9 10 11 9 7 7 8 8 8 7 8 8 8 7 6 5 3 2 3 4 4 4 4 4 3 2 2 2 2 2 2 3 4 5 6 6 7 7 7 7 8 8 8 8 7 7 7 7 5 4 3 2 3 4 5 6 6 6 6 6 6 5 3 2 2 2 3 4 4 5 6
14 14 14 14 15 14 14 14 13 14 14 13 11 9 9 10 12 13 12 11 12 14 14 13 13 12 11 9 9 8 7 7 7 6 4 4 3 2 2 1 0 1 1 1 2 3 4 5 6 7 7 7 7 7 8 8 7 6 6 6 5 4 5 5 5 5 5 6 7 7 7 6 5 4 3 1 0 1 3 4 4 5 5 6 7
13 13 14 14 14 13 13 12 12 12 13 12 11 9 9 9 11 13 14 14 15 15 16 17 17 16 14 13 13 12 11 11 11 9 7 7 6 5 5 4 3 2 2 2 2 3 3 4 5 6 7 8 8 8 8 7 6 5 5 5 4 2 4 6 7 7 8 8 7 7 6 5 3 1 1 2 3 4 5 5 5 5 5 6 6
13 13 14 14 15 14 13 13 12 12 13 13 12 11 11 11 11 11 13 15 15 15 16 17 18 18 18 18 16 15 14 14 13 11 10 10 9 8 8 6 5 5 4 4 4 4 4 4 5 6 8 9 9 8 8 7 6 5 3 3 2 2 4 7 8 8 9 9 8 6 5 3 2 2 3 3 3 3 3 3 3 4 4 4 5
12 13 13 14 14 14 14 13 12 12 12 13 13 13 14 13 12 12 13 14 14 15 17 19 19 19 19 19 18 17 16 15 14 13 12 12 11 10 9 8 7 7 6 6 6 6 6 7 7 8 9 10 10 9 8 8 6 5 4 3 3 4 6 7 7 8 8 8 6 5 3 2 1 1 1 2 2 2 3 3 3 3 4 5 7
13 13 14 14 15 15 16 15 14 12 12 13 14 15 16 16 15 14 15 15 15 15 17 19 21 21 21 21 20 19 18 17 15 14 13 12 11 11 10 10 9 9 9 9 9 9 10 10 10 10 11 11 11 9 8 8 7 7 6 6 6 6 7 7 7 8 8 7 5 4 3 2 2 2 2 2 3 3 3 4 4 5 7 8 10
13 14 15 15 16 16 16 16 16 15 14 14 14 15 17 19 18 18 18 17 16 16 15 15 16 17 18 19 19 19 18 17 15 14 13 12 11 11 11 10 10 11 11 11 11 12 12 12 12 13 13 13 11 10 10 9 9 9 8 8 8 8 8 7 7 8 8 6 5 5 4 4 4 3 3 3 3 4 4 6 7 8 10 11 11
13 13 15 15 16 16 16 16 16 16 15 15 15 16 17 18 19 20 21 20 19 18 16 14 12 12 13 14 15 16 16 16 15 14 13 13 12 12 11 11 11 12 12 12 13 14 14 14 15 15 14 14 12 11 12 12 11 11 10 10 9 9 8 8 8 8 8 7 7 7 6 6 5 4 3 3 4 5 6 7 8 9 10 11 12
16 16 16 16 16 16 16 16 17 17 17 16 16 16 17 18 18 19 21 22 21 19 18 17 15 13 13 14 14 15 15 15 15 14 13 13 13 13 14 14 14 14 14 15 15 16 17 17 17 17 16 15 14 14 15 15 14 13 12 11 10 9 9 8 8 9 9 9 9 9 8 6 5 3 4 5 6 6 7 8 9 10 11 13 14
18 19 18 18 18 18 18 19 20 20 20 20 19 18 17 18 18 19 21 23 23 21 20 19 18 18 17 16 16 16 16 15 15 14 14 14 14 14 15 16 16 16 16 17 17 18 18 18 19 19 18 16 15 15 16 17 16 15 13 11 10 10 9 9 9 9 10 11 11 9 7 5 4 5 6 7 7 8 8 9 10 12 13 14 15
19 19 19 19 19 20 20 21 21 21 22 23 23 22 19 17 18 19 21 23 24 23 21 21 20 20 19 18 17 17 16 16 15 15 15 15 15 15 16 17 17 17 18 19 20 20 19 19 19 19 18 17 16 17 16 17 18 15 12 11 9 10 10 10 11 11 11 11 10 8 6 5 5 6 7 7 8 9 10 11 12 13 14 15 16
19 19 19 19 19 19 20 20 21 20 21 23 25 25 21 18 18 18 19 20 22 22 22 22 22 21 20 19 18 17 16 15 15 15 15 15 16 16 17 18 19 19 20 21 22 21 21 20 20 19 18 18 19 18 16 18 19 16 13 12 11 11 11 11 12 12 11 10 8 6 6 5 6 6 6 7 8 9 11 12 14 14 14 16 18
Wind_Direction
162 179 194 199 199 199 199 196 196 196 195 196 197 201 203 193 198 206 205 202 192 181 177 174 170 162 155 147 139 136 137 137 136 139 132 122 119 114 112 106 98 99 111 122 125 127 137 162 198 222 236 247 249 233 236 290 302 294 274 235 218 225 238 236 197 174 177 173 181 201 203 214 219 205 187 175 169 167 178 198 209 215 231 243 246
150 171 190 198 199 200 202 200 197 197 198 198 194 198 206 199 198 206 207 202 196 186 178 174 167 159 153 146 141 138 139 143 145 149 148 143 138 132 125 109 89 89 114 129 127 124 122 134 169 202 231 257 264 226 168 181 284 307 278 225 217 225 247 257 218 184 187 184 176 190 235 242 237 228 223 219 212 196 178 171 178 171 179 234 237
175 172 186 198 199 197 200 206 209 204 200 197 191 192 200 201 199 204 205 200 197 191 181 170 162 160 155 149 149 147 148 154 160 166 172 171 158 150 144 129 101 95 134 142 135 130 125 123 126 124 125 96 54 15 156 179 205 226 234 217 215 218 241 267 216 193 200 183 161 94 283 322 284 255 236 231 230 225 219 212 207 209 228 247 243
187 181 187 195 197 197 199 207 215 211 203 195 189 189 193 197 199 200 201 198 196 190 180 170 163 164 161 157 158 156 158 164 168 173 179 178 162 152 148 139 132 134 147 148 141 137 135 130 126 119 105 88 81 70 81 127 190 199 203 208 215 217 221 224 204 218 199 171 150 65 92 77 313 280 240 234 234 231 233 234 231 230 236 245 252
193 193 193 193 196 197 200 206 207 206 205 197 192 192 193 195 197 196 195 193 190 185 179 173 168 166 162 159 159 158 159 165 170 172 174 171 153 136 130 126 130 137 146 152 151 149 143 136 132 129 104 80 81 75 75 71 75 128 161 170 193 219 211 198 215 236 210 170 154 124 121 145 251 264 107 186 226 224 227 228 228 225 227 241 254
199 198 193 192 197 199 202 206 203 204 206 200 195 196 195 193 191 189 188 184 181 181 180 179 174 170 166 163 162 160 160 167 174 172 172 165 147 133 124 120 125 133 144 155 159 158 149 145 149 168 155 98 94 84 80 71 64 58 65 108 159 202 204 191 207 237 242 167 147 156 166 170 174 174 170 135 82 222 219 210 208 204 209 233 245
195 194 189 186 191 196 203 207 206 206 205 200 196 194 192 188 184 182 179 175 177 180 184 185 178 173 170 169 170 170 168 172 179 176 171 162 147 140 132 123 121 124 135 148 159 160 149 147 148 155 156 134 124 115 96 79 74 67 60 77 128 158 189 200 211 228 231 178 143 167 189 137 143 157 166 131 93 271 247 198 199 186 169 164 179
183 190 192 189 193 200 209 211 209 207 205 200 188 175 167 161 164 171 172 173 179 184 188 187 180 172 169 169 172 176 176 175 177 172 165 159 151 146 138 130 124 120 128 142 155 155 144 139 140 153 165 155 140 131 120 102 88 80 77 85 102 118 141 188 207 208 201 197 188 215 283 313 116 158 153 142 148 186 341 338 42 115 147 127 206
182 186 191 195 201 204 211 215 213 207 181 134 109 96 90 110 149 171 174 176 181 186 186 184 179 172 169 171 172 173 175 171 170 167 162 161 157 149 142 134 127 124 130 142 149 147 136 128 129 161 171 155 140 132 122 112 98 97 102 94 91 97 99 101 118 149 172 188 190 207 254 297 22 88 110 91 72 64 27 332 42 75 75 32 21
188 184 188 198 207 210 213 190 95 91 92 90 91 109 137 161 183 189 182 180 182 184 184 180 179 178 177 178 174 169 169 166 166 167 167 167 163 154 147 139 133 132 138 145 146 139 126 109 101 134 152 147 143 138 129 119 107 109 110 103 97 94 87 81 80 92 118 138 147 163 166 118 111 65 56 59 56 57 67 30 33 62 67 55 67
188 177 180 193 204 192 108 91 91 91 89 88 97 127 159 182 200 203 190 183 182 183 183 182 182 186 188 185 178 171 170 170 170 172 174 175 174 166 158 150 142 137 141 145 143 133 116 98 96 109 117 124 132 135 140 138 127 121 120 118 111 92 76 69 70 79 96 106 103 99 89 77 77 69 61 76 99 91 84 57 47 68 79 77 80
176 171 173 178 172 113 102 103 103 105 109 119 132 146 171 195 208 210 202 191 185 185 186 187 188 193 197 193 188 183 181 181 180 181 183 182 181 176 167 159 152 149 151 151 144 135 116 99 105 107 105 105 109 117 128 137 139 136 133 128 113 94 85 82 84 88 94 98 93 86 84 76 71 68 63 74 103 124 121 118 104 94 88 88 88
173 172 168 158 125 109 115 120 122 127 139 152 163 173 183 194 201 203 201 195 192 192 192 194 195 197 202 201 199 197 197 196 191 190 190 190 189 186 177 168 163 163 167 166 158 146 127 106 109 107 102 98 96 97 102 115 134 140 138 130 115 107 107 104 101 98 93 92 93 90 87 79 72 66 62 66 76 111 124 128 138 129 115 105 94
106 91 82 75 93 116 130 141 147 152 155 161 175 181 181 188 198 200 200 198 197 196 195 198 199 202 207 208 206 205 206 205 200 196 194 195 197 195 188 180 171 167 171 175 172 165 149 118 109 103 99 95 90 89 92 101 117 128 130 124 117 115 114 109 102 98 95 93 96 96 90 83 77 71 68 70 70 80 101 116 123 113 106 101 86
60 57 45 33 74 127 144 156 162 164 161 166 180 180 166 167 193 204 203 201 200 199 199 200 204 207 208 209 209 208 209 208 202 200 199 198 198 198 196 193 185 171 166 174 183 186 181 135 104 96 97 90 83 81 84 94 106 115 121 120 117 118 116 110 102 96 96 95 94 96 97 93 87 82 77 72 71 70 74 96 127 125 91 77 71
72 78 73 53 52 121 160 169 171 166 163 173 180 170 149 166 194 201 199 200 204 206 206 206 208 208 208 209 208 207 207 207 203 202 204 203 201 202 203 205 203 188 174 182 195 199 202 233 330 344 160 39 40 50 61 76 92 102 111 116 119 122 117 110 105 98 92 91 94 97 102 101 94 89 84 76 74 74 71 80 103 131 129 103 66
46 51 87 93 79 92 182 184 179 181 183 182 174 164 172 192 198 191 190 202 209 212 213 210 207 206 208 209 208 206 207 209 206 204 206 207 206 207 212 218 220 212 204 208 215 214 215 245 310 313 286 281 304 331 22 51 64 78 92 103 114 123 119 110 107 101 92 90 94 96 97 99 96 92 89 81 78 78 76 76 76 89 132 150 114
54 7 30 101 103 112 175 206 197 191 189 179 166 167 182 200 198 189 195 208 211 213 214 210 206 206 207 208 207 208 210 211 210 208 208 208 208 209 214 222 227 226 227 230 232 226 225 232 256 299 298 286 282 284 310 18 36 51 73 90 105 119 119 113 110 106 101 97 97 98 97 98 97 92 88 84 82 79 73 71 70 72 91 119 123
152 214 224 94 106 118 151 214 217 195 176 165 164 170 181 198 200 195 204 213 214 213 210 209 208 207 208 209 211 212 211 210 209 208 210 211 211 210 209 213 218 227 236 238 240 236 233 239 246 265 288 290 282 272 268 291 335 3 27 70 99 116 115 112 111 109 108 106 103 103 104 104 100 91 85 82 81 81 74 70 70 69 71 82 101
173 191 145 99 100 121 151 197 211 189 158 151 164 175 186 197 200 199 208 214 214 212 210 210 209 208 209 210 214 216 212 209 208 209 214 216 216 215 210 206 206 223 240 242 245 245 242 247 251 255 269 285 283 272 269 278 292 305 318 338 46 112 116 108 105 107 113 115 111 109 109 111 110 97 85 80 79 84 85 79 75 73 71 70 79
142 129 113 111 106 121 153 181 185 171 154 142 157 178 189 198 201 205 212 213 213 211 210 211 208 207 210 211 215 217 212 209 208 211 218 221 223 224 222 217 214 230 244 247 250 254 256 259 262 265 270 278 283 279 277 281 286 290 291 292 292 281 230 176 119 110 118 130 127 117 113 114 119 109 88 79 81 86 89 87 81 76 77 73 71
89 84 89 105 107 119 143 162 166 164 153 140 147 175 188 196 200 204 212 216 216 212 211 213 211 208 210 213 215 215 212 210 210 214 220 221 223 227 229 230 229 238 250 255 257 258 259 260 263 269 271 269 274 281 287 290 291 289 285 280 279 276 272 264 254 249 163 176 174 145 127 121 122 120 106 100 101 99 94 87 82 74 75 72 67
83 77 67 70 92 111 125 137 155 156 138 135 139 152 171 185 191 194 202 209 212 212 212 214 213 210 209 210 213 215 215 214 214 216 216 214 217 223 229 236 239 244 254 262 266 265 265 266 266 269 272 269 265 270 287 295 290 286 284 282 279 276 273 271 268 268 264 250 239 218 191 158 147 144 129 126 130 127 117 99 87 73 66 67 62
99 98 87 84 89 95 102 109 117 115 113 128 135 140 152 163 177 186 195 200 203 203 204 206 209 210 208 207 209 214 217 216 215 216 213 210 212 219 230 243 250 253 261 271 273 270 271 272 269 270 274 273 270 271 282 285 281 282 285 285 282 278 275 275 275 273 268 263 258 248 242 235 215 198 178 161 158 156 149 131 110 89 68 68 62
107 99 91 95 97 91 91 94 97 99 103 113 127 143 151 156 168 176 183 193 195 189 186 192 199 201 202 204 206 210 213 212 209 208 206 205 210 220 231 238 248 257 261 268 274 272 268 268 270 273 275 274 274 277 281 276 269 272 281 287 286 281 278 278 278 275 271 268 267 262 255 251 244 230 216 202 191 188 183 169 154 142 122 98 80
108 107 108 107 102 99 99 99 99 101 102 104 114 132 145 156 167 171 170 177 188 188 180 175 178 181 186 192 198 204 209 207 200 194 192 199 207 216 223 226 233 244 244 246 259 266 265 266 269 273 274 273 274 278 279 273 266 264 271 282 284 280 277 276 276 275 273 270 269 269 264 257 252 244 234 224 216 213 209 204 199 193 194 183 126
109 119 122 112 100 96 101 108 109 110 110 109 110 113 123 142 156 163 164 160 171 185 182 170 166 169 170 175 182 189 193 190 182 177 182 193 203 213 225 229 233 240 243 242 247 253 257 261 265 267 268 270 272 278 280 275 270 267 263 266 275 279 279 277 276 275 273 272 271 269 267 262 258 255 247 238 232 229 226 221 215 208 207 206 195
81 97 104 104 103 98 103 110 112 115 118 120 120 117 115 130 147 161 169 164 163 178 182 176 169 167 166 167 167 167 173 175 166 165 182 201 211 222 231 237 241 249 254 249 247 250 251 252 257 260 263 267 271 277 281 279 277 272 267 267 273 279 281 280 279 277 275 274 275 273 270 265 262 260 257 252 246 241 236 229 222 218 213 209 205
36 39 37 49 56 52 85 108 115 121 124 126 130 135 135 136 141 151 163 162 157 166 176 178 176 177 180 180 175 173 180 179 167 173 199 209 217 227 232 242 256 265 267 261 255 257 256 254 256 260 266 274 279 280 281 284 286 284 279 279 279 280 282 282 282 281 278 277 278 278 276 270 266 263 261 259 257 252 248 240 231 224 217 211 207
28 24 22 24 20 18 32 64 89 101 111 119 126 133 138 137 136 140 145 144 147 157 166 172 177 183 189 192 191 188 186 175 159 168 184 188 199 218 229 244 259 262 261 255 250 252 255 257 260 264 270 278 282 283 288 292 293 291 289 286 283 281 283 284 283 282 280 278 278 278 276 274 272 267 260 258 256 253 251 247 242 234 224 223 234
36 34 32 31 30 30 34 39 42 47 65 86 101 115 121 123 126 130 131 131 136 142 145 149 155 163 170 175 178 175 167 158 151 154 157 154 158 171 180 196 213 220 225 227 232 243 252 258 261 262 267 277 285 295 300 298 294 292 290 287 284 282 282 282 282 284 284 283 283 282 279 276 275 271 263 256 253 251 248 244 238 229 220 227 246
45 46 39 35 30 28 36 42 40 37 45 54 61 92 106 110 115 117 118 124 125 123 124 125 127 135 143 147 152 155 153 152 151 150 149 145 142 141 141 143 144 142 143 146 148 149 160 190 246 289 329 345 353 350 335 321 312 300 292 289 287 284 282 281 281 283 286 290 292 292 289 284 281 278 272 261 252 247 242 233 221 210 209 219 229
43 44 43 43 39 38 42 46 46 43 41 39 41 68 88 97 107 113 119 125 124 119 117 117 119 123 127 130 138 143 141 138 137 134 133 132 129 125 122 121 120 121 121 119 115 107 98 86 67 48 36 25 14 4 358 352 344 330 313 298 288 285 284 282 281 282 284 289 292 292 292 290 288 284 278 269 256 242 227 214 206 203 207 214 226
41 42 43 42 43 47 47 46 49 50 50 49 49 53 70 87 100 110 117 120 122 121 118 117 120 122 122 123 128 131 131 128 126 125 124 123 120 116 114 114 114 115 115 112 109 102 88 71 52 39 26 9 357 352 348 344 341 336 329 318 305 295 289 286 284 281 280 283 287 289 290 290 290 287 282 274 254 229 209 201 199 200 205 216 232
33 38 40 39 42 45 44 44 49 52 51 50 46 47 56 66 75 84 89 94 105 111 109 111 115 116 119 124 127 131 134 132 129 127 124 121 119 116 114 113 110 111 115 114 111 104 91 66 33 19 8 354 348 345 342 339 336 332 327 322 315 307 299 292 286 282 280 282 285 289 292 294 292 287 283 272 240 211 199 196 197 201 211 219 225
18 19 25 30 32 35 36 35 41 51 55 49 45 51 59 60 64 66 65 70 83 88 88 93 100 103 109 119 128 138 142 140 138 135 129 126 125 123 122 121 120 122 122 117 112 99 69 37 13 4 2 355 349 346 345 346 344 337 329 322 317 313 307 297 288 284 282 284 288 293 296 296 289 280 271 248 215 202 197 197 199 202 206 212 225
26 30 33 32 23 18 22 19 15 31 46 30 22 46 68 62 59 58 55 58 64 69 69 72 81 87 93 103 117 128 132 133 135 132 127 123 123 122 121 120 122 128 128 123 120 89 14 357 352 354 356 353 349 349 352 353 354 349 342 332 326 322 314 300 291 287 287 290 294 300 304 297 281 260 227 199 195 199 200 199 198 198 205 228 251
31 33 35 38 38 32 32 30 24 23 12 343 337 337 15 45 41 46 61 55 52 63 65 49 56 62 72 94 113 123 127 128 129 127 123 119 117 113 108 105 106 111 112 114 120 308 298 305 323 336 340 340 340 342 346 349 351 351 347 341 336 330 319 306 301 299 301 309 319 334 337 285 232 193 178 177 184 197 202 198 200 216 240 260 270
31 32 30 31 33 31 31 32 31 26 14 356 340 318 290 289 312 328 263 247 236 199 210 229 230 233 236 223 200 174 150 137 133 133 131 128 126 119 108 98 91 82 73 67 47 351 320 316 323 326 326 326 327 330 335 340 342 346 349 345 337 329 316 301 294 294 319 32 67 98 118 157 171 163 164 172 179 194 209 218 246 267 268 266 272
24 27 26 23 20 17 19 24 24 19 10 2 352 333 309 296 298 300 285 260 246 240 243 243 231 224 223 220 218 220 230 233 205 179 161 155 150 136 121 104 74 49 33 19 356 330 316 311 311 312 311 309 310 317 325 331 334 340 348 347 337 324 303 272 242 205 159 136 134 136 138 147 158 163 169 177 184 207 250 272 280 283 280 278 285
16 16 15 13 11 8 8 11 13 9 3 2 355 335 312 298 294 292 286 277 271 267 262 255 245 233 220 218 225 236 247 247 234 220 208 200 203 206 206 216 233 5 334 311 295 292 292 293 295 297 296 295 299 306 313 317 320 327 342 350 343 317 282 247 211 186 171 158 151 149 145 146 155 163 167 181 249 313 317 314 312 312 311 307 305
7 10 8 2 358 356 354 352 355 355 351 352 352 342 325 307 290 282 283 286 287 283 271 261 252 239 228 229 234 233 230 226 222 221 222 222 227 234 238 239 241 255 270 264 255 263 270 278 286 288 287 287 289 291 294 296 298 306 324 343 346 309 256 235 213 190 176 169 166 163 160 158 168 198 264 290 300 307 312 316 319 320 319 317 314
359 3 4 0 354 349 344 338 338 340 338 338 339 338 335 326 311 302 297 291 285 279 272 266 256 242 232 233 233 226 220 219 219 221 223 225 226 229 233 239 245 250 250 242 243 252 257 264 273 278 281 283 280 277 279 281 280 276 282 307 318 253 225 224 218 200 182 171 167 167 170 179 218 274 294 304 314 324 330 338 341 335 329 324 318
356 356 356 356 351 346 341 334 329 330 330 329 329 328 324 320 318 322 320 308 292 277 267 263 256 245 235 229 225 221 221 222 222 221 221 221 222 223 226 232 238 237 231 232 240 246 251 258 265 269 271 272 269 266 266 267 262 246 236 241 228 207 207 210 204 190 178 171 166 164 167 179 240 327 2 15 24 32 27 19 8 349 335 326 321
347 347 346 345 341 337 334 329 326 326 324 322 323 322 316 310 309 313 318 319 312 296 273 260 254 248 237 227 220 218 218 220 219 218 219 219 219 220 221 224 228 228 228 233 239 243 250 257 263 267 267 263 259 254 248 243 234 218 210 206 196 189 190 193 188 176 170 169 169 167 158 142 125 104 96 81 57 47 31 9 354 340 332 328 326
340 339 338 337 334 330 328 325 321 319 318 315 314 313 309 307 305 305 307 312 313 306 289 269 259 251 239 227 220 216 215 215 216 219 222 223 224 225 227 228 230 232 236 241 244 247 251 254 260 265 263 256 250 242 233 225 215 206 198 193 188 182 179 181 179 171 168 168 163 157 150 139 130 118 100 74 46 26 1 344 339 334 333 333 332
330 331 330 328 326 325 324 324 322 320 318 312 305 301 300 302 304 304 304 304 303 302 295 282 269 259 245 231 223 220 217 216 218 221 224 227 230 234 237 240 241 242 243 245 247 249 250 253 258 262 257 250 243 235 225 215 207 201 196 191 188 181 175 176 174 167 166 163 152 144 139 131 122 109 78 41 17 359 346 342 342 340 339 337 333
319 319 318 317 315 313 312 313 314 317 319 315 307 300 295 293 296 299 301 299 295 291 289 284 277 268 254 239 230 227 226 225 226 229 231 235 238 242 246 249 252 254 254 253 253 254 254 256 259 257 251 242 234 229 225 218 211 204 195 189 186 183 179 178 174 166 159 152 147 142 133 123 108 81 47 21 8 1 357 353 348 343 339 336 333
313 311 310 308 304 300 299 299 300 304 307 308 307 306 303 298 294 291 292 292 288 283 280 278 276 269 257 243 233 231 232 235 238 238 240 242 242 244 248 250 252 255 258 259 259 258 259 262 261 256 247 236 232 237 236 224 214 208 201 197 195 189 181 171 167 165 157 149 144 137 127 114 81 46 30 21 15 8 1 354 349 347 346 346 348
309 308 305 302 298 295 293 292 294 298 298 297 297 300 303 306 303 296 290 288 286 281 276 272 269 266 257 246 239 238 239 242 245 246 246 247 246 247 249 250 251 251 252 255 257 258 259 259 257 254 250 245 250 259 247 220 206 201 198 197 193 185 176 165 159 159 155 149 143 131 111 85 56 40 33 27 19 6 357 354 354 356 357 358 357
305 303 301 300 300 298 295 293 296 299 297 293 291 291 294 302 310 310 301 290 284 279 273 267 263 258 251 245 243 244 246 249 251 254 256 257 257 256 255 254 255 254 252 252 254 255 256 255 252 252 252 250 253 258 241 213 200 194 190 188 182 174 167 160 157 156 150 145 140 124 101 76 53 45 39 26 13 3 360 359 358 359 1 359 356